Duluth, MN

9:32 AM CDT on April 23, 2017 (GMT -0500)
Duluth International

Weather History for KDLH - January, 2012

Change the Weather History Date:

Saturday, January 21, 2012

  Actual Average Record
Temperature  
Mean Temperature 3 °F 10 °F  
Max Temperature 17 °F 19 °F 45 °F (1900)
Min Temperature -12 °F 1 °F -33 °F (1883)
Degree Days  
Heating Degree Days 62 55  
Month to date heating degree days 1018 1152  
Since 1 July heating degree days 4154 4921  
Cooling Degree Days 0 0  
Month to date cooling degree days 0 0  
Year to date cooling degree days 0 0  
Moisture  
Dew Point -4 °F    
Average Humidity 63    
Maximum Humidity 75    
Minimum Humidity 51    
Precipitation  
Precipitation 0.00 in 0.03 in 0.41 in (2005)
Month to date precipitation 0.13 0.70  
Year to date precipitation 0.13 0.70  
Snow  
Snow 0.00 in 0.60 in 7.60 in (2005)
Month to date snowfall 1.8 14.0  
Since 1 July snowfall 13.6 47.8  
Snow Depth 2.00 in    
Sea Level Pressure  
Sea Level Pressure 30.07 in    
Wind  
Wind Speed 8 mph (SSE)    
Max Wind Speed 24 mph    
Max Gust Speed 30 mph    
Visibility 10 miles    
Events Snow    
T = Trace of Precipitation, MM = Missing Value Source: NWS Daily Summary

Daily Weather History Graph

Daily Weather History Graph

Search for Another Location

Airport or City:

Trip Planner

Search our weather history database for the weather conditions in past years. The results will help you decide how hot, cold, wet, or windy it might be!

Date:

Astronomy

Jan. 21, 2012 Rise Set
Actual Time 7:45 AM CST 4:54 PM CST
Civil Twilight 7:11 AM CST 5:28 PM CST
Nautical Twilight 6:34 AM CST 6:05 PM CST
Astronomical Twilight 5:58 AM CST 6:41 PM CST
Moon 6:19 AM CST (1/21) 3:29 PM CST (1/21)
Length of Visible Light 10h 16m
Length of Day
9h 09m
Waning Crescent, 3% of the Moon is Illuminated
Jan 21
Waning Crescent
Jan 23
New
Jan 30
First Quarter
Feb 7
Full
Feb 14
Last Quarter

Hourly Weather History & Observations

Time (CST) Temp. Windchill Dew Point Humidity Pressure Visibility Wind Dir Wind Speed Gust Speed Precip Events Conditions
12:55 AM -2.9 °F -11.2 °F -11.9 °F 65% 30.25 in 10.0 mi NW 3.5 mph - N/A   Clear
1:55 AM -4.0 °F -12.4 °F -11.9 °F 69% 30.25 in 10.0 mi NW 3.5 mph - N/A   Clear
2:55 AM -5.8 °F -14.5 °F -11.2 °F 77% 30.13 in 10.0 mi NW 3.5 mph - N/A   Clear
3:55 AM -9.0 °F - -16.1 °F 71% 30.25 in 10.0 mi Calm Calm - N/A   Clear
4:55 AM -7.1 °F - -13.0 °F 75% 30.23 in 10.0 mi Calm Calm - N/A   Clear
5:55 AM -9.0 °F - -16.1 °F 71% 30.24 in 10.0 mi Calm Calm - N/A   Clear
6:55 AM -9.9 °F - -17.0 °F 71% 30.23 in 10.0 mi Calm Calm - N/A   Clear
7:55 AM -7.6 °F - -14.8 °F 71% 30.11 in 10.0 mi Calm Calm - N/A   Scattered Clouds
8:55 AM -0.0 °F - -7.1 °F 72% 30.22 in 10.0 mi Calm Calm - N/A   Mostly Cloudy
9:55 AM 3.9 °F -9.4 °F -4.0 °F 70% 30.22 in 10.0 mi South 8.1 mph - N/A   Overcast
10:55 AM 6.8 °F -5.9 °F -5.8 °F 56% 30.09 in 10.0 mi SSW 8.1 mph - N/A   Overcast
11:55 AM 8.1 °F -6.2 °F -2.0 °F 64% 30.17 in 10.0 mi South 10.4 mph - N/A   Overcast
12:55 PM 8.1 °F -6.2 °F -0.9 °F 67% 30.14 in 10.0 mi South 10.4 mph - N/A   Overcast
1:55 PM 10.0 °F -2.9 °F -0.0 °F 64% 30.11 in 10.0 mi SSE 9.2 mph - N/A   Mostly Cloudy
2:55 PM 10.9 °F -0.8 °F -0.0 °F 61% 30.10 in 10.0 mi SE 8.1 mph - N/A   Mostly Cloudy
3:55 PM 12.0 °F -1.3 °F 1.0 °F 61% 30.08 in 10.0 mi SE 10.4 mph - N/A   Mostly Cloudy
4:55 PM 12.9 °F -2.8 °F 1.0 °F 59% 30.04 in 10.0 mi SE 15.0 mph - N/A   Partly Cloudy
5:55 PM 15.1 °F -0.6 °F -0.0 °F 51% 30.01 in 10.0 mi SSE 16.1 mph 23.0 mph N/A   Overcast
6:55 PM 15.8 °F -0.2 °F -0.4 °F 49% 29.87 in 10.0 mi SSE 17.3 mph 24.2 mph N/A   Overcast
7:19 PM 14.0 °F -1.4 °F -0.4 °F 53% 29.85 in 10.0 mi SSE 15.0 mph 29.9 mph N/A   Overcast
7:55 PM 14.0 °F -2.0 °F -0.9 °F 52% 29.95 in 10.0 mi SSE 16.1 mph - N/A   Overcast
8:55 PM 14.0 °F -0.8 °F 1.4 °F 57% 29.81 in 10.0 mi SSE 13.8 mph - N/A   Overcast
9:55 PM 15.1 °F 1.1 °F 5.0 °F 64% 29.88 in 10.0 mi SSE 12.7 mph - N/A   Overcast
10:13 PM 15.8 °F 1.4 °F 6.8 °F 68% 29.77 in 10.0 mi SSE 13.8 mph - N/A   Overcast
10:55 PM 16.0 °F 2.3 °F 9.0 °F 74% 29.86 in 10.0 mi SSE 12.7 mph - N/A   Overcast
11:55 PM 17.1 °F 3.0 °F 10.9 °F 77% 29.84 in 9.0 mi SSE 13.8 mph 20.7 mph 0.00 in Snow Light Snow